Location: Unspecified
(39.9267°N, 0.0000°E)
Time: 18:14:29
(UTC+00:00)

ISS - Visible Passes

Search period start: 03 August 2020 00:00
Search period end: 13 August 2020 00:00
Orbit: 419 x 420 km, 51.6° (Epoch: 04 August)

Date Brightness Start Highest point End Pass type
(mag) Time Alt. Az. Time Alt. Az. Time Alt. Az.
03 Aug -3.6 20:00:56 10° NW 20:04:18 72° SW 20:06:58 15° SE visible
04 Aug -1.2 20:51:28 10° W 20:53:09 13° SW 20:54:21 12° SSW visible
05 Aug -1.8 20:03:03 10° WNW 20:05:46 23° SW 20:08:29 10° S visible
